| time (UTC) | temp F | wind direction | speed MPH | gust MPH | rain 1hr in | rain 24hr in | rain mn in | humidity % | barometer mb |
| 20260903002057 | 93 | 295 | 2.0 | 0.0 | 0.00 | 0.00 | 0.00 | 3 | 1001.8 |
| 20260903001540 | 94 | 221 | 2.0 | 0.0 | 0.00 | 0.00 | 0.00 | 4 | 1001.9 |
| 20260903001024 | 94 | 230 | 2.0 | 0.0 | 0.00 | 0.00 | 0.00 | 3 | 1001.9 |
| 20260903000501 | 94 | 248 | 2.0 | 0.0 | 0.00 | 0.00 | 0.00 | 4 | 1001.7 |
| 20260903000053 | 94 | 208 | 2.0 | 0.0 | 0.00 | 0.00 | 0.00 | 3 | 1001.7 |
| 20260902235528 | 94 | 360 | 2.0 | 0.0 | 0.00 | 0.00 | 0.00 | 4 | 1001.5 |
| 20260902235007 | 94 | 360 | 3.0 | 0.0 | 0.00 | 0.00 | 0.00 | 3 | 1001.5 |
| 20260902234550 | 94 | 360 | 3.0 | 0.0 | 0.00 | 0.00 | 0.00 | 3 | 1001.5 |
| 20260902234030 | 95 | 360 | 2.0 | 0.0 | 0.00 | 0.00 | 0.00 | 3 | 1001.5 |
| 20260902233508 | 94 | 360 | 2.0 | 0.0 | 0.00 | 0.00 | 0.00 | 3 | 1001.5 |
| 20260902233050 | 95 | 360 | 3.0 | 0.0 | 0.00 | 0.00 | 0.00 | 3 | 1001.7 |
| 20260902232530 | 94 | 360 | 3.0 | 0.0 | 0.00 | 0.00 | 0.00 | 3 | 1001.7 |
| 20260902232011 | 94 | 360 | 4.0 | 0.0 | 0.00 | 0.00 | 0.00 | 3 | 1001.7 |
| 20260902231558 | 95 | 360 | 3.0 | 0.0 | 0.00 | 0.00 | 0.00 | 3 | 1001.8 |
| 20260902231043 | 95 | 360 | 2.0 | 0.0 | 0.00 | 0.00 | 0.00 | 3 | 1001.8 |
| 20260902230518 | 95 | 360 | 3.0 | 0.0 | 0.00 | 0.00 | 0.00 | 3 | 1001.8 |
| 20260902225541 | 95 | 360 | 3.0 | 0.0 | 0.00 | 0.00 | 0.00 | 3 | 1001.8 |
| 20260902225020 | 95 | 360 | 4.0 | 0.0 | 0.00 | 0.00 | 0.00 | 3 | 1001.9 |
| 20260902224604 | 95 | 360 | 3.0 | 0.0 | 0.00 | 0.00 | 0.00 | 3 | 1001.9 |
| 20260902224050 | 95 | 360 | 2.0 | 0.0 | 0.00 | 0.00 | 0.00 | 3 | 1001.9 |
| 20260902223529 | 96 | 360 | 2.0 | 0.0 | 0.00 | 0.00 | 0.00 | 3 | 1002.1 |
| 20260902223007 | 96 | 360 | 2.0 | 0.0 | 0.00 | 0.00 | 0.00 | 3 | 1002.1 |
| 20260902222548 | 95 | 360 | 3.0 | 0.0 | 0.00 | 0.00 | 0.00 | 3 | 1002.2 |
| 20260902222029 | 95 | 360 | 3.0 | 0.0 | 0.00 | 0.00 | 0.00 | 3 | 1002.3 |
| 20260902221507 | 95 | 360 | 3.0 | 0.0 | 0.00 | 0.00 | 0.00 | 3 | 1002.2 |
| 20260902221052 | 96 | 360 | 3.0 | 0.0 | 0.00 | 0.00 | 0.00 | 3 | 1002.5 |
| 20260902220535 | 96 | 360 | 3.0 | 0.0 | 0.00 | 0.00 | 0.00 | 4 | 1002.5 |
| 20260902220013 | 96 | 360 | 3.0 | 0.0 | 0.00 | 0.00 | 0.00 | 3 | 1002.5 |
| 20260902215556 | 95 | 360 | 3.0 | 0.0 | 0.00 | 0.00 | 0.00 | 3 | 1002.4 |
| 20260902215041 | 95 | 360 | 3.0 | 0.0 | 0.00 | 0.00 | 0.00 | 3 | 1002.4 |
| 20260902214519 | 95 | 360 | 3.0 | 0.0 | 0.00 | 0.00 | 0.00 | 3 | 1002.5 |
| 20260902214101 | 95 | 360 | 3.0 | 0.0 | 0.00 | 0.00 | 0.00 | 3 | 1002.6 |
| 20260902213540 | 95 | 360 | 3.0 | 0.0 | 0.00 | 0.00 | 0.00 | 3 | 1002.6 |
| 20260902213019 | 95 | 360 | 3.0 | 0.0 | 0.00 | 0.00 | 0.00 | 3 | 1002.6 |
| 20260902212602 | 95 | 360 | 3.0 | 0.0 | 0.00 | 0.00 | 0.00 | 3 | 1002.6 |
| 20260902212039 | 95 | 360 | 3.0 | 0.0 | 0.00 | 0.00 | 0.00 | 3 | 1002.7 |
| 20260902211518 | 95 | 360 | 3.0 | 0.0 | 0.00 | 0.00 | 0.00 | 3 | 1002.7 |
| 20260902211102 | 95 | 360 | 3.0 | 0.0 | 0.00 | 0.00 | 0.00 | 3 | 1002.7 |
| 20260902210542 | 95 | 360 | 3.0 | 0.0 | 0.00 | 0.00 | 0.00 | 3 | 1002.7 |
| 20260902210024 | 95 | 360 | 3.0 | 0.0 | 0.00 | 0.00 | 0.00 | 3 | 1002.8 |
| 20260902205506 | 95 | 360 | 3.0 | 0.0 | 0.00 | 0.00 | 0.00 | 4 | 1002.9 |
| 20260902205047 | 94 | 360 | 3.0 | 0.0 | 0.00 | 0.00 | 0.00 | 3 | 1002.9 |
| 20260902204537 | 95 | 360 | 3.0 | 0.0 | 0.00 | 0.00 | 0.00 | 3 | 1002.8 |
| 20260902204006 | 94 | 360 | 3.0 | 0.0 | 0.00 | 0.00 | 0.00 | 3 | 1002.9 |
| 20260902203551 | 94 | 360 | 3.0 | 0.0 | 0.00 | 0.00 | 0.00 | 3 | 1003.0 |
| 20260902203032 | 94 | 360 | 3.0 | 0.0 | 0.00 | 0.00 | 0.00 | 3 | 1003.0 |
| 20260902202510 | 94 | 360 | 3.0 | 0.0 | 0.00 | 0.00 | 0.00 | 3 | 1003.1 |
| 20260902202054 | 94 | 360 | 3.0 | 0.0 | 0.00 | 0.00 | 0.00 | 3 | 1003.2 |
| 20260902201533 | 94 | 360 | 3.0 | 0.0 | 0.00 | 0.00 | 0.00 | 3 | 1003.3 |
| 20260902201014 | 94 | 360 | 4.0 | 0.0 | 0.00 | 0.00 | 0.00 | 3 | 1003.3 |
| 20260902200557 | 94 | 360 | 4.0 | 0.0 | 0.00 | 0.00 | 0.00 | 3 | 1003.4 |
| 20260902200037 | 94 | 360 | 4.0 | 0.0 | 0.00 | 0.00 | 0.00 | 3 | 1003.4 |
| 20260902195515 | 93 | 360 | 3.0 | 0.0 | 0.00 | 0.00 | 0.00 | 3 | 1003.3 |
| 20260902195058 | 94 | 360 | 3.0 | 0.0 | 0.00 | 0.00 | 0.00 | 3 | 1003.3 |
| 20260902194544 | 94 | 360 | 3.0 | 0.0 | 0.00 | 0.00 | 0.00 | 3 | 1003.4 |
| 20260902194027 | 94 | 360 | 3.0 | 0.0 | 0.00 | 0.00 | 0.00 | 3 | 1003.4 |
| 20260902193503 | 94 | 360 | 2.0 | 0.0 | 0.00 | 0.00 | 0.00 | 3 | 1003.5 |
| 20260902193048 | 94 | 360 | 2.0 | 0.0 | 0.00 | 0.00 | 0.00 | 3 | 1003.6 |
| 20260902192528 | 93 | 360 | 2.0 | 0.0 | 0.00 | 0.00 | 0.00 | 3 | 1003.7 |
| 20260902192007 | 93 | 360 | 2.0 | 0.0 | 0.00 | 0.00 | 0.00 | 4 | 1003.8 |
| 20260902191553 | 93 | 360 | 2.0 | 0.0 | 0.00 | 0.00 | 0.00 | 4 | 1004.0 |
| 20260902191035 | 93 | 360 | 2.0 | 0.0 | 0.00 | 0.00 | 0.00 | 3 | 1003.9 |
| 20260902190510 | 93 | 360 | 2.0 | 0.0 | 0.00 | 0.00 | 0.00 | 4 | 1004.2 |
| 20260902190054 | 93 | 360 | 2.0 | 0.0 | 0.00 | 0.00 | 0.00 | 3 | 1004.1 |
| 20260902185538 | 93 | 360 | 2.0 | 0.0 | 0.00 | 0.00 | 0.00 | 4 | 1004.2 |
| 20260902185014 | 92 | 360 | 3.0 | 0.0 | 0.00 | 0.00 | 0.00 | 3 | 1004.1 |
| 20260902184556 | 92 | 360 | 2.0 | 0.0 | 0.00 | 0.00 | 0.00 | 3 | 1004.3 |
| 20260902184040 | 92 | 360 | 2.0 | 0.0 | 0.00 | 0.00 | 0.00 | 4 | 1004.4 |
| 20260902183518 | 92 | 360 | 2.0 | 0.0 | 0.00 | 0.00 | 0.00 | 4 | 1004.4 |
| 20260902183059 | 91 | 360 | 2.0 | 0.0 | 0.00 | 0.00 | 0.00 | 4 | 1004.5 |
| 20260902182535 | 91 | 360 | 2.0 | 0.0 | 0.00 | 0.00 | 0.00 | 4 | 1004.6 |
| 20260902182015 | 91 | 360 | 3.0 | 0.0 | 0.00 | 0.00 | 0.00 | 4 | 1004.7 |
| 20260902181612 | 90 | 360 | 3.0 | 0.0 | 0.00 | 0.00 | 0.00 | 3 | 1004.7 |
| 20260902181035 | 90 | 360 | 2.0 | 0.0 | 0.00 | 0.00 | 0.00 | 4 | 1004.8 |
| 20260902180514 | 90 | 360 | 2.0 | 0.0 | 0.00 | 0.00 | 0.00 | 4 | 1004.8 |
| 20260902180100 | 90 | 360 | 2.0 | 0.0 | 0.00 | 0.00 | 0.00 | 4 | 1004.8 |
| 20260902175539 | 90 | 360 | 3.0 | 0.0 | 0.00 | 0.00 | 0.00 | 5 | 1004.7 |
| 20260902175018 | 90 | 360 | 3.0 | 0.0 | 0.00 | 0.00 | 0.00 | 4 | 1004.7 |
| 20260902174501 | 90 | 360 | 2.0 | 0.0 | 0.00 | 0.00 | 0.00 | 5 | 1004.8 |
| 20260902174042 | 89 | 360 | 3.0 | 0.0 | 0.00 | 0.00 | 0.00 | 4 | 1004.8 |
| 20260902173522 | 89 | 360 | 2.0 | 0.0 | 0.00 | 0.00 | 0.00 | 5 | 1004.8 |
| 20260902173103 | 89 | 360 | 2.0 | 0.0 | 0.00 | 0.00 | 0.00 | 5 | 1004.8 |
| 20260902172549 | 89 | 360 | 2.0 | 0.0 | 0.00 | 0.00 | 0.00 | 5 | 1004.9 |
| 20260902172023 | 89 | 360 | 2.0 | 0.0 | 0.00 | 0.00 | 0.00 | 5 | 1004.9 |
| 20260902171501 | 88 | 360 | 2.0 | 0.0 | 0.00 | 0.00 | 0.00 | 6 | 1005.1 |
| 20260902171043 | 88 | 360 | 3.0 | 0.0 | 0.00 | 0.00 | 0.00 | 6 | 1005.1 |
| 20260902170522 | 87 | 360 | 3.0 | 0.0 | 0.00 | 0.00 | 0.00 | 6 | 1005.0 |
| 20260902170105 | 87 | 360 | 3.0 | 0.0 | 0.00 | 0.00 | 0.00 | 5 | 1005.1 |
| 20260902165549 | 86 | 360 | 5.0 | 0.0 | 0.00 | 0.00 | 0.00 | 6 | 1005.1 |
| 20260902165028 | 86 | 360 | 5.0 | 0.0 | 0.00 | 0.00 | 0.00 | 6 | 1005.2 |
| 20260902164505 | 86 | 360 | 6.0 | 0.0 | 0.00 | 0.00 | 0.00 | 7 | 1005.2 |
| 20260902164050 | 85 | 360 | 6.0 | 0.0 | 0.00 | 0.00 | 0.00 | 8 | 1005.4 |
| 20260902163527 | 84 | 360 | 6.0 | 0.0 | 0.00 | 0.00 | 0.00 | 8 | 1005.3 |
| 20260902163005 | 84 | 360 | 5.0 | 0.0 | 0.00 | 0.00 | 0.00 | 8 | 1005.4 |
| 20260902162551 | 84 | 360 | 4.0 | 0.0 | 0.00 | 0.00 | 0.00 | 8 | 1005.3 |
| 20260902162028 | 83 | 360 | 5.0 | 0.0 | 0.00 | 0.00 | 0.00 | 8 | 1005.2 |
| 20260902161507 | 83 | 360 | 5.0 | 0.0 | 0.00 | 0.00 | 0.00 | 9 | 1005.4 |
| 20260902161049 | 83 | 360 | 5.0 | 0.0 | 0.00 | 0.00 | 0.00 | 9 | 1005.4 |
| 20260902160526 | 82 | 360 | 5.0 | 0.0 | 0.00 | 0.00 | 0.00 | 9 | 1005.4 |
| 20260902160009 | 82 | 360 | 5.0 | 0.0 | 0.00 | 0.00 | 0.00 | 9 | 1005.5 |
| 20260902155548 | 82 | 360 | 5.0 | 0.0 | 0.00 | 0.00 | 0.00 | 8 | 1005.1 |
| 20260902155026 | 81 | 360 | 6.0 | 0.0 | 0.00 | 0.00 | 0.00 | 9 | 1005.4 |
| 20260902154504 | 81 | 360 | 7.0 | 0.0 | 0.00 | 0.00 | 0.00 | 9 | 1005.1 |
| 20260902154049 | 81 | 360 | 6.0 | 0.0 | 0.00 | 0.00 | 0.00 | 9 | 1005.4 |
| 20260902153529 | 81 | 360 | 4.0 | 0.0 | 0.00 | 0.00 | 0.00 | 9 | 1005.1 |
| 20260902153004 | 80 | 360 | 5.0 | 0.0 | 0.00 | 0.00 | 0.00 | 10 | 1005.0 |
| 20260902152556 | 80 | 360 | 6.0 | 0.0 | 0.00 | 0.00 | 0.00 | 10 | 1005.3 |
| 20260902152033 | 79 | 360 | 7.0 | 0.0 | 0.00 | 0.00 | 0.00 | 10 | 1005.0 |
| 20260902151509 | 78 | 360 | 7.0 | 0.0 | 0.00 | 0.00 | 0.00 | 11 | 1005.3 |
| 20260902151051 | 78 | 360 | 8.0 | 0.0 | 0.00 | 0.00 | 0.00 | 10 | 1004.8 |
| 20260902150529 | 77 | 360 | 8.0 | 0.0 | 0.00 | 0.00 | 0.00 | 12 | 1005.5 |
| 20260902150004 | 76 | 360 | 7.0 | 0.0 | 0.00 | 0.00 | 0.00 | 11 | 1005.1 |
| 20260902145548 | 76 | 360 | 5.0 | 0.0 | 0.00 | 0.00 | 0.00 | 12 | 1005.3 |
| 20260902145024 | 75 | 360 | 4.0 | 0.0 | 0.00 | 0.00 | 0.00 | 13 | 1005.3 |
| 20260902144604 | 75 | 360 | 4.0 | 0.0 | 0.00 | 0.00 | 0.00 | 13 | 1005.3 |
| 20260902144043 | 75 | 360 | 5.0 | 0.0 | 0.00 | 0.00 | 0.00 | 14 | 1005.5 |
| 20260902143522 | 74 | 360 | 4.0 | 0.0 | 0.00 | 0.00 | 0.00 | 14 | 1005.3 |
| 20260902143001 | 73 | 360 | 3.0 | 0.0 | 0.00 | 0.00 | 0.00 | 14 | 1005.5 |
| 20260902142544 | 72 | 360 | 3.0 | 0.0 | 0.00 | 0.00 | 0.00 | 15 | 1005.5 |
| 20260902134042 | 70 | 360 | 1.0 | 0.0 | 0.00 | 0.00 | 0.00 | 16 | 1005.4 |
| 20260902133521 | 70 | 360 | 1.0 | 0.0 | 0.00 | 0.00 | 0.00 | 16 | 1005.5 |
| 20260902133105 | 70 | 360 | 1.0 | 0.0 | 0.00 | 0.00 | 0.00 | 16 | 1005.5 |
| 20260902132551 | 70 | 360 | 1.0 | 0.0 | 0.00 | 0.00 | 0.00 | 16 | 1005.4 |
| 20260902132030 | 71 | 360 | 1.0 | 0.0 | 0.00 | 0.00 | 0.00 | 16 | 1005.2 |
| 20260902131510 | 70 | 360 | 1.0 | 0.0 | 0.00 | 0.00 | 0.00 | 16 | 1005.2 |
| 20260902131053 | 70 | 360 | 0.0 | 0.0 | 0.00 | 0.00 | 0.00 | 17 | 1005.2 |
| 20260902130534 | 70 | 360 | 1.0 | 0.0 | 0.00 | 0.00 | 0.00 | 17 | 1005.1 |
| 20260902130012 | 71 | 360 | 1.0 | 0.0 | 0.00 | 0.00 | 0.00 | 16 | 1004.9 |
| 20260902125555 | 71 | 360 | 1.0 | 0.0 | 0.00 | 0.00 | 0.00 | 16 | 1004.6 |
| 20260902125040 | 71 | 360 | 1.0 | 0.0 | 0.00 | 0.00 | 0.00 | 16 | 1004.5 |
| 20260902124528 | 71 | 360 | 1.0 | 0.0 | 0.00 | 0.00 | 0.00 | 16 | 1004.5 |
| 20260902124004 | 71 | 360 | 1.0 | 0.0 | 0.00 | 0.00 | 0.00 | 16 | 1004.4 |
| 20260902123551 | 71 | 360 | 1.0 | 0.0 | 0.00 | 0.00 | 0.00 | 15 | 1004.4 |
| 20260902123036 | 70 | 360 | 1.0 | 0.0 | 0.00 | 0.00 | 0.00 | 16 | 1004.5 |
| 20260902122515 | 69 | 360 | 1.0 | 0.0 | 0.00 | 0.00 | 0.00 | 16 | 1004.5 |
| 20260902122057 | 69 | 360 | 1.0 | 0.0 | 0.00 | 0.00 | 0.00 | 16 | 1004.4 |
| 20260902121538 | 69 | 360 | 1.0 | 0.0 | 0.00 | 0.00 | 0.00 | 16 | 1004.4 |
| 20260902121014 | 72 | 360 | 0.0 | 0.0 | 0.00 | 0.00 | 0.00 | 15 | 1004.2 |
| 20260902120600 | 72 | 360 | 0.0 | 0.0 | 0.00 | 0.00 | 0.00 | 15 | 1004.0 |
| 20260902120036 | 72 | 360 | 0.0 | 0.0 | 0.00 | 0.00 | 0.00 | 15 | 1004.1 |
| 20260902115516 | 72 | 360 | 0.0 | 0.0 | 0.00 | 0.00 | 0.00 | 15 | 1004.0 |
| 20260902115059 | 72 | 360 | 1.0 | 0.0 | 0.00 | 0.00 | 0.00 | 15 | 1004.0 |
| 20260902114539 | 72 | 360 | 1.0 | 0.0 | 0.00 | 0.00 | 0.00 | 15 | 1004.0 |
| 20260902114021 | 71 | 360 | 1.0 | 0.0 | 0.00 | 0.00 | 0.00 | 15 | 1004.1 |
| 20260902113600 | 71 | 360 | 1.0 | 0.0 | 0.00 | 0.00 | 0.00 | 15 | 1004.1 |
| 20260902113044 | 71 | 360 | 1.0 | 0.0 | 0.00 | 0.00 | 0.00 | 15 | 1004.0 |
| 20260902112521 | 72 | 360 | 1.0 | 0.0 | 0.00 | 0.00 | 0.00 | 14 | 1003.9 |
| 20260902112106 | 72 | 360 | 0.0 | 0.0 | 0.00 | 0.00 | 0.00 | 15 | 1003.8 |
| 20260902111545 | 72 | 360 | 0.0 | 0.0 | 0.00 | 0.00 | 0.00 | 14 | 1003.8 |
| 20260902111026 | 73 | 360 | 0.0 | 0.0 | 0.00 | 0.00 | 0.00 | 13 | 1003.7 |
| 20260902110505 | 74 | 360 | 0.0 | 0.0 | 0.00 | 0.00 | 0.00 | 13 | 1003.6 |
| 20260902110049 | 75 | 360 | 0.0 | 0.0 | 0.00 | 0.00 | 0.00 | 13 | 1003.6 |
| 20260902105527 | 75 | 360 | 0.0 | 0.0 | 0.00 | 0.00 | 0.00 | 13 | 1003.4 |
| 20260902105009 | 75 | 360 | 0.0 | 0.0 | 0.00 | 0.00 | 0.00 | 13 | 1003.3 |
| 20260902104553 | 75 | 360 | 0.0 | 0.0 | 0.00 | 0.00 | 0.00 | 13 | 1003.3 |
| 20260902104034 | 75 | 360 | 0.0 | 0.0 | 0.00 | 0.00 | 0.00 | 13 | 1003.3 |
| 20260902103519 | 75 | 360 | 0.0 | 0.0 | 0.00 | 0.00 | 0.00 | 13 | 1003.4 |
| 20260902103109 | 75 | 360 | 0.0 | 0.0 | 0.00 | 0.00 | 0.00 | 13 | 1003.4 |
| 20260902102543 | 75 | 360 | 0.0 | 0.0 | 0.00 | 0.00 | 0.00 | 13 | 1003.5 |
| 20260902102022 | 76 | 360 | 0.0 | 0.0 | 0.00 | 0.00 | 0.00 | 13 | 1003.7 |
| 20260902101605 | 76 | 360 | 0.0 | 0.0 | 0.00 | 0.00 | 0.00 | 12 | 1003.6 |
| 20260902101044 | 76 | 360 | 0.0 | 0.0 | 0.00 | 0.00 | 0.00 | 12 | 1003.5 |
| 20260902100531 | 76 | 360 | 0.0 | 0.0 | 0.00 | 0.00 | 0.00 | 12 | 1003.5 |
| 20260902100013 | 76 | 360 | 0.0 | 0.0 | 0.00 | 0.00 | 0.00 | 12 | 1003.6 |
| 20260902095556 | 76 | 360 | 0.0 | 0.0 | 0.00 | 0.00 | 0.00 | 12 | 1003.6 |
| 20260902095035 | 77 | 360 | 0.0 | 0.0 | 0.00 | 0.00 | 0.00 | 12 | 1003.6 |
| 20260902094515 | 77 | 360 | 0.0 | 0.0 | 0.00 | 0.00 | 0.00 | 12 | 1003.6 |
| 20260902094059 | 77 | 360 | 0.0 | 0.0 | 0.00 | 0.00 | 0.00 | 12 | 1003.5 |
| 20260902093542 | 77 | 360 | 0.0 | 0.0 | 0.00 | 0.00 | 0.00 | 12 | 1003.7 |
| 20260902093023 | 77 | 360 | 0.0 | 0.0 | 0.00 | 0.00 | 0.00 | 13 | 1003.7 |
| 20260902092503 | 76 | 360 | 0.0 | 0.0 | 0.00 | 0.00 | 0.00 | 13 | 1003.7 |
| 20260902092050 | 76 | 360 | 0.0 | 0.0 | 0.00 | 0.00 | 0.00 | 13 | 1003.7 |
| 20260902091536 | 77 | 360 | 0.0 | 0.0 | 0.00 | 0.00 | 0.00 | 13 | 1003.7 |
| 20260902091012 | 77 | 360 | 0.0 | 0.0 | 0.00 | 0.00 | 0.00 | 13 | 1003.7 |
| 20260902090555 | 77 | 360 | 0.0 | 0.0 | 0.00 | 0.00 | 0.00 | 14 | 1003.7 |
| 20260902090033 | 77 | 217 | 0.0 | 0.0 | 0.00 | 0.00 | 0.00 | 13 | 1003.7 |
| 20260902085511 | 78 | 244 | 0.0 | 0.0 | 0.00 | 0.00 | 0.00 | 13 | 1003.7 |
| 20260902085059 | 78 | 237 | 0.0 | 0.0 | 0.00 | 0.00 | 0.00 | 13 | 1003.6 |
| 20260902084553 | 78 | 228 | 0.0 | 0.0 | 0.00 | 0.00 | 0.00 | 12 | 1003.6 |
| 20260902084019 | 79 | 246 | 0.0 | 0.0 | 0.00 | 0.00 | 0.00 | 12 | 1003.6 |
| 20260902083602 | 79 | 234 | 0.0 | 0.0 | 0.00 | 0.00 | 0.00 | 12 | 1003.6 |
| 20260902083049 | 79 | 295 | 0.0 | 0.0 | 0.00 | 0.00 | 0.00 | 12 | 1003.4 |
| 20260902082521 | 79 | 234 | 0.0 | 0.0 | 0.00 | 0.00 | 0.00 | 12 | 1003.5 |
| 20260902082106 | 79 | 283 | 0.0 | 0.0 | 0.00 | 0.00 | 0.00 | 12 | 1003.5 |
| 20260902081600 | 79 | 245 | 0.0 | 0.0 | 0.00 | 0.00 | 0.00 | 12 | 1003.6 |
| 20260902081023 | 80 | 261 | 1.0 | 0.0 | 0.00 | 0.00 | 0.00 | 12 | 1003.5 |
| 20260902080502 | 80 | 252 | 1.0 | 0.0 | 0.00 | 0.00 | 0.00 | 12 | 1003.5 |
| 20260902080044 | 80 | 211 | 0.0 | 0.0 | 0.00 | 0.00 | 0.00 | 12 | 1003.4 |
| 20260902075526 | 80 | 132 | 1.0 | 0.0 | 0.00 | 0.00 | 0.00 | 12 | 1003.3 |
| 20260902075008 | 80 | 239 | 0.0 | 0.0 | 0.00 | 0.00 | 0.00 | 12 | 1003.3 |
| 20260902074554 | 80 | 245 | 0.0 | 0.0 | 0.00 | 0.00 | 0.00 | 12 | 1003.3 |
| 20260902074030 | 80 | 283 | 1.0 | 0.0 | 0.00 | 0.00 | 0.00 | 11 | 1003.3 |
| 20260902073510 | 80 | 217 | 0.0 | 0.0 | 0.00 | 0.00 | 0.00 | 11 | 1003.3 |
| 20260902073052 | 80 | 136 | 0.0 | 0.0 | 0.00 | 0.00 | 0.00 | 11 | 1003.3 |
| 20260902072531 | 80 | 256 | 1.0 | 0.0 | 0.00 | 0.00 | 0.00 | 11 | 1003.2 |
| 20260902072011 | 80 | 166 | 1.0 | 0.0 | 0.00 | 0.00 | 0.00 | 10 | 1003.2 |
| 20260902071602 | 80 | 191 | 1.0 | 0.0 | 0.00 | 0.00 | 0.00 | 10 | 1003.1 |
| 20260902071032 | 81 | 209 | 1.0 | 0.0 | 0.00 | 0.00 | 0.00 | 10 | 1003.1 |
| 20260902070512 | 81 | 243 | 1.0 | 0.0 | 0.00 | 0.00 | 0.00 | 10 | 1002.9 |
| 20260902070054 | 81 | 247 | 1.0 | 0.0 | 0.00 | 0.00 | 0.00 | 10 | 1002.7 |
| 20260902065536 | 82 | 226 | 1.0 | 0.0 | 0.00 | 0.00 | 0.00 | 10 | 1002.9 |
| 20260902065019 | 82 | 278 | 1.0 | 0.0 | 0.00 | 0.00 | 0.00 | 9 | 1002.8 |
| 20260902064620 | 82 | 263 | 1.0 | 0.0 | 0.00 | 0.00 | 0.00 | 9 | 1002.7 |
| 20260902064041 | 82 | 210 | 1.0 | 0.0 | 0.00 | 0.00 | 0.00 | 9 | 1002.8 |
| 20260902063525 | 82 | 261 | 1.0 | 0.0 | 0.00 | 0.00 | 0.00 | 9 | 1002.7 |
| 20260902063002 | 82 | 360 | 1.0 | 0.0 | 0.00 | 0.00 | 0.00 | 10 | 1002.6 |
| 20260902062552 | 82 | 360 | 1.0 | 0.0 | 0.00 | 0.00 | 0.00 | 10 | 1002.6 |
| 20260902062030 | 83 | 360 | 1.0 | 0.0 | 0.00 | 0.00 | 0.00 | 10 | 1002.6 |
| 20260902061515 | 83 | 261 | 1.0 | 0.0 | 0.00 | 0.00 | 0.00 | 10 | 1002.6 |
| 20260902061051 | 83 | 32 | 1.0 | 0.0 | 0.00 | 0.00 | 0.00 | 11 | 1002.6 |
| 20260902060532 | 82 | 218 | 1.0 | 0.0 | 0.00 | 0.00 | 0.00 | 11 | 1002.6 |
| 20260902060012 | 82 | 296 | 1.0 | 0.0 | 0.00 | 0.00 | 0.00 | 11 | 1002.6 |
| 20260902055555 | 82 | 234 | 1.0 | 0.0 | 0.00 | 0.00 | 0.00 | 11 | 1002.8 |
| 20260902055038 | 82 | 311 | 1.0 | 0.0 | 0.00 | 0.00 | 0.00 | 11 | 1002.7 |
| 20260902054519 | 82 | 223 | 1.0 | 0.0 | 0.00 | 0.00 | 0.00 | 11 | 1002.9 |
| 20260902054103 | 82 | 216 | 1.0 | 0.0 | 0.00 | 0.00 | 0.00 | 11 | 1002.9 |
| 20260902053541 | 82 | 360 | 1.0 | 0.0 | 0.00 | 0.00 | 0.00 | 12 | 1002.9 |
| 20260902053028 | 82 | 360 | 1.0 | 0.0 | 0.00 | 0.00 | 0.00 | 12 | 1002.9 |
| 20260902052506 | 82 | 360 | 1.0 | 0.0 | 0.00 | 0.00 | 0.00 | 12 | 1002.8 |
| 20260902052049 | 82 | 360 | 1.0 | 0.0 | 0.00 | 0.00 | 0.00 | 12 | 1002.6 |
| 20260902051533 | 83 | 360 | 1.0 | 0.0 | 0.00 | 0.00 | 0.00 | 12 | 1002.7 |
| 20260902051013 | 83 | 360 | 1.0 | 0.0 | 0.00 | 0.00 | 0.00 | 12 | 1002.7 |
| 20260902050555 | 84 | 360 | 1.0 | 0.0 | 0.00 | 0.00 | 0.00 | 12 | 1002.6 |
| 20260902050038 | 84 | 360 | 1.0 | 0.0 | 0.00 | 0.00 | 0.00 | 12 | 1002.5 |
| 20260902045514 | 84 | 360 | 1.0 | 0.0 | 0.00 | 0.00 | 0.00 | 12 | 1002.7 |
| 20260902045058 | 84 | 360 | 1.0 | 0.0 | 0.00 | 0.00 | 0.00 | 12 | 1002.7 |
| 20260902044603 | 84 | 360 | 1.0 | 0.0 | 0.00 | 0.00 | 0.00 | 12 | 1002.7 |
| 20260902044021 | 84 | 360 | 1.0 | 0.0 | 0.00 | 0.00 | 0.00 | 12 | 1002.7 |
| 20260902043604 | 85 | 360 | 1.0 | 0.0 | 0.00 | 0.00 | 0.00 | 12 | 1002.6 |
| 20260902043046 | 85 | 360 | 1.0 | 0.0 | 0.00 | 0.00 | 0.00 | 12 | 1002.5 |
| 20260902042526 | 85 | 360 | 1.0 | 0.0 | 0.00 | 0.00 | 0.00 | 12 | 1002.4 |
| 20260902042006 | 85 | 360 | 1.0 | 0.0 | 0.00 | 0.00 | 0.00 | 12 | 1002.3 |
| 20260902041552 | 85 | 360 | 1.0 | 0.0 | 0.00 | 0.00 | 0.00 | 12 | 1002.1 |
| 20260902041037 | 86 | 360 | 1.0 | 0.0 | 0.00 | 0.00 | 0.00 | 12 | 1002.1 |
| 20260902040515 | 86 | 360 | 1.0 | 0.0 | 0.00 | 0.00 | 0.00 | 12 | 1002.0 |
| 20260902040109 | 86 | 360 | 2.0 | 0.0 | 0.00 | 0.00 | 0.00 | 12 | 1002.0 |
| 20260902035537 | 86 | 360 | 2.0 | 0.0 | 0.00 | 0.00 | 0.00 | 12 | 1002.2 |
| 20260902035022 | 86 | 360 | 2.0 | 0.0 | 0.00 | 0.00 | 0.00 | 13 | 1002.2 |
| 20260902034607 | 86 | 360 | 2.0 | 0.0 | 0.00 | 0.00 | 0.00 | 13 | 1002.1 |
| 20260902034042 | 86 | 360 | 1.0 | 0.0 | 0.00 | 0.00 | 0.00 | 13 | 1001.9 |
| 20260902033523 | 86 | 360 | 1.0 | 0.0 | 0.00 | 0.00 | 0.00 | 13 | 1001.9 |
| 20260902033001 | 87 | 360 | 1.0 | 0.0 | 0.00 | 0.00 | 0.00 | 13 | 1001.8 |
| 20260902032547 | 87 | 360 | 1.0 | 0.0 | 0.00 | 0.00 | 0.00 | 13 | 1001.7 |
| 20260902032027 | 87 | 360 | 1.0 | 0.0 | 0.00 | 0.00 | 0.00 | 13 | 1001.7 |
| 20260902031507 | 87 | 360 | 2.0 | 0.0 | 0.00 | 0.00 | 0.00 | 13 | 1001.6 |
| 20260902031052 | 87 | 360 | 2.0 | 0.0 | 0.00 | 0.00 | 0.00 | 13 | 1001.5 |
| 20260902030532 | 87 | 360 | 2.0 | 0.0 | 0.00 | 0.00 | 0.00 | 13 | 1001.5 |
| 20260902030011 | 88 | 360 | 2.0 | 0.0 | 0.00 | 0.00 | 0.00 | 13 | 1001.5 |
| 20260902025555 | 88 | 360 | 2.0 | 0.0 | 0.00 | 0.00 | 0.00 | 13 | 1001.6 |
| 20260902025034 | 88 | 360 | 2.0 | 0.0 | 0.00 | 0.00 | 0.00 | 13 | 1001.6 |
| 20260902024520 | 88 | 360 | 2.0 | 0.0 | 0.00 | 0.00 | 0.00 | 12 | 1001.6 |
| 20260902024102 | 88 | 360 | 2.0 | 0.0 | 0.00 | 0.00 | 0.00 | 12 | 1001.7 |
| 20260902023542 | 88 | 360 | 3.0 | 0.0 | 0.00 | 0.00 | 0.00 | 12 | 1001.6 |
| 20260902023020 | 88 | 360 | 2.0 | 0.0 | 0.00 | 0.00 | 0.00 | 12 | 1001.6 |
| 20260902022603 | 88 | 360 | 2.0 | 0.0 | 0.00 | 0.00 | 0.00 | 12 | 1001.5 |
| 20260902022042 | 88 | 360 | 2.0 | 0.0 | 0.00 | 0.00 | 0.00 | 12 | 1001.5 |
| 20260902021531 | 89 | 360 | 2.0 | 0.0 | 0.00 | 0.00 | 0.00 | 12 | 1001.5 |
| 20260902021002 | 89 | 360 | 3.0 | 0.0 | 0.00 | 0.00 | 0.00 | 11 | 1001.6 |
| 20260902020548 | 89 | 360 | 3.0 | 0.0 | 0.00 | 0.00 | 0.00 | 11 | 1001.5 |
| 20260902020027 | 90 | 360 | 3.0 | 0.0 | 0.00 | 0.00 | 0.00 | 11 | 1001.5 |
| 20260902015511 | 90 | 360 | 3.0 | 0.0 | 0.00 | 0.00 | 0.00 | 11 | 1001.9 |
| 20260902015055 | 90 | 360 | 2.0 | 0.0 | 0.00 | 0.00 | 0.00 | 11 | 1002.0 |
| 20260902014540 | 90 | 360 | 2.0 | 0.0 | 0.00 | 0.00 | 0.00 | 11 | 1002.1 |
| 20260902014014 | 90 | 360 | 2.0 | 0.0 | 0.00 | 0.00 | 0.00 | 11 | 1002.1 |
| 20260902013557 | 91 | 82 | 2.0 | 0.0 | 0.00 | 0.00 | 0.00 | 11 | 1002.2 |
| 20260902013035 | 91 | 360 | 2.0 | 0.0 | 0.00 | 0.00 | 0.00 | 11 | 1002.0 |
| 20260902012515 | 91 | 360 | 3.0 | 0.0 | 0.00 | 0.00 | 0.00 | 10 | 1002.1 |
| 20260902012057 | 92 | 227 | 2.0 | 0.0 | 0.00 | 0.00 | 0.00 | 10 | 1002.1 |
| 20260902011540 | 92 | 246 | 2.0 | 0.0 | 0.00 | 0.00 | 0.00 | 10 | 1002.2 |
| 20260902011022 | 92 | 228 | 3.0 | 0.0 | 0.00 | 0.00 | 0.00 | 10 | 1002.1 |
| 20260902010503 | 92 | 257 | 3.0 | 0.0 | 0.00 | 0.00 | 0.00 | 10 | 1002.2 |
| 20260902010047 | 93 | 279 | 3.0 | 0.0 | 0.00 | 0.00 | 0.00 | 10 | 1002.1 |
| 20260902005529 | 93 | 204 | 3.0 | 0.0 | 0.00 | 0.00 | 0.00 | 10 | 1002.2 |
| 20260902005012 | 93 | 348 | 3.0 | 0.0 | 0.00 | 0.00 | 0.00 | 9 | 1002.3 |
| 20260902004558 | 93 | 217 | 2.0 | 0.0 | 0.00 | 0.00 | 0.00 | 9 | 1002.4 |
| 20260902004036 | 94 | 9 | 2.0 | 0.0 | 0.00 | 0.00 | 0.00 | 9 | 1002.4 |
| 20260902003515 | 94 | 10 | 3.0 | 0.0 | 0.00 | 0.00 | 0.00 | 9 | 1002.4 |
| 20260902003059 | 94 | 245 | 3.0 | 0.0 | 0.00 | 0.00 | 0.00 | 9 | 1002.3 |
| 20260902002547 | 94 | 217 | 3.0 | 0.0 | 0.00 | 0.00 | 0.00 | 8 | 1002.3 |